H1 CPF 2 NER 2021 12 4 9 338 01 glonass107 H2 0706501 9107 32393 2021 12 4 0 0 0 2021 12 7 23 45 0 900 1 1 0 0 0 1 H9 10 0 59552 0.00000 0 -20044345.926 8202648.303 -13486829.716 10 0 59552 900.00000 0 -21513848.966 8495886.919 -10762831.255 10 0 59552 1800.00000 0 -22616439.108 8829547.909 -7829857.680 10 0 59552 2700.00000 0 -23333581.667 9149088.453 -4744819.393 10 0 59552 3600.00000 0 -23659832.475 9398601.486 -1567610.651 10 0 59552 4500.00000 0 -23602939.169 9523391.741 1640053.074 10 0 59552 5400.00000 0 -23183405.805 9472512.359 4815835.864 10 0 59552 6300.00000 0 -22433538.915 9201153.902 7897996.549 10 0 59552 7200.00000 0 -21396015.077 8672783.616 10826594.002 10 0 59552 8100.00000 0 -20122030.406 7860943.165 13544658.483 10 0 59552 9000.00000 0 -18669110.054 6750627.328 15999305.569 10 0 59552 9900.00000 0 -17098670.273 5339184.010 18142770.320 10 0 59552 10800.00000 0 -15473435.975 3636695.962 19933341.175 10 0 59552 11700.00000 0 -13854822.709 1665826.660 21336175.084 10 0 59552 12600.00000 0 -12300393.400 -538864.621 22323977.872 10 0 59552 13500.00000 0 -10861496.738 -2932111.110 22877536.632 10 0 59552 14400.00000 0 -9581186.324 -5459581.651 22986093.873 10 0 59552 15300.00000 0 -8492507.650 -8059910.810 22647556.282 10 0 59552 16200.00000 0 -7617224.331 -10667032.001 21868534.180 10 0 59552 17100.00000 0 -6965036.345 -13212716.946 20664210.986 10 0 59552 18000.00000 0 -6533322.332 -15629215.893 19058045.304 10 0 59552 18900.00000 0 -6307415.753 -17851888.928 17081311.479 10 0 59552 19800.00000 0 -6261402.233 -19821718.883 14772487.521 10 0 59552 20700.00000 0 -6359403.360 -21487601.234 12176502.477 10 0 59552 21600.00000 0 -6557291.681 -22808315.770 9343857.998 10 0 59552 22500.00000 0 -6804763.378 -23754097.999 6329641.407 10 0 59552 23400.00000 0 -7047680.028 -24307745.293 3192449.964 10 0 59552 24300.00000 0 -7230579.494 -24465212.105 -6752.388 10 0 59552 25200.00000 0 -7299248.903 -24235670.258 -3205823.072 10 0 59552 26100.00000 0 -7203250.186 -23641032.959 -6342650.010 10 0 59552 27000.00000 0 -6898290.896 -22714963.649 -9356357.951 10 0 59552 27900.00000 0 -6348339.660 -21501412.351 -12188488.358 10 0 59552 28800.00000 0 -5527396.684 -20052741.846 -14784129.852 10 0 59552 29700.00000 0 -4420844.369 -18427523.009 -17092977.562 10 0 59552 30600.00000 0 -3026320.856 -16688092.085 -19070301.354 10 0 59552 31500.00000 0 -1354079.428 -14897972.249 -20677804.851 10 0 59552 32400.00000 0 573181.931 -13119267.001 -21884359.552 10 0 59552 33300.00000 0 2721014.548 -11410133.654 -22666600.775 10 0 59552 34200.00000 0 5044408.649 -9822441.561 -23009374.764 10 0 59552 35100.00000 0 7489430.282 -8399711.731 -22906029.045 10 0 59552 36000.00000 0 9995238.880 -7175422.653 -22358540.863 10 0 59552 36900.00000 0 12496403.061 -6171751.979 -21377481.333 10 0 59552 37800.00000 0 14925419.940 -5398805.662 -19981815.769 10 0 59552 38700.00000 0 17215334.711 -4854365.974 -18198543.471 10 0 59552 39600.00000 0 19302352.670 -4524168.504 -16062183.138 10 0 59552 40500.00000 0 21128335.944 -4382696.192 -13614112.886 10 0 59552 41400.00000 0 22643081.505 -4394456.950 -10901776.578 10 0 59552 42300.00000 0 23806285.596 -4515691.149 -7977770.969 10 0 59552 43200.00000 0 24589112.495 -4696437.007 -4898830.578 10 0 59552 44100.00000 0 24975301.660 -4882866.647 -1724729.449 10 0 59552 45000.00000 0 24961766.399 -5019793.898 1482878.979 10 0 59552 45900.00000 0 24558658.470 -5053247.278 4661661.276 10 0 59552 46800.00000 0 23788895.422 -4932998.577 7749819.034 10 0 59552 47700.00000 0 22687170.201 -4614939.028 10687295.215 10 0 59552 48600.00000 0 21298484.466 -4063201.352 13416947.719 10 0 59552 49500.00000 0 19676267.197 -3251936.519 15885666.709 10 0 59552 50400.00000 0 17880157.841 -2166668.725 18045413.237 10 0 59552 51300.00000 0 15973547.285 -805169.867 19854158.553 10 0 59552 52200.00000 0 14020980.116 822184.878 21276705.527 10 0 59552 53100.00000 0 12085527.406 2692596.738 22285375.976 10 0 59552 54000.00000 0 10226240.220 4771552.114 22860550.606 10 0 59552 54900.00000 0 8495790.464 7014031.949 22991051.112 10 0 59552 55800.00000 0 6938397.669 9366172.029 22674357.146 10 0 59552 56700.00000 0 5588128.003 11767305.653 21916654.088 10 0 59552 57600.00000 0 4467636.052 14152304.012 20732710.785 10 0 59552 58500.00000 0 3587401.170 16454116.915 19145589.699 10 0 59552 59400.00000 0 2945489.317 18606408.174 17186195.176 10 0 59552 60300.00000 0 2527849.072 20546175.782 14892668.577 10 0 59552 61200.00000 0 2309128.080 22216247.522 12309642.212 10 0 59552 62100.00000 0 2253974.094 23567547.811 9487366.645 10 0 59552 63000.00000 0 2318764.360 24561041.290 6480728.675 10 0 59552 63900.00000 0 2453689.082 25169271.949 3348179.440 10 0 59552 64800.00000 0 2605099.673 25377433.734 150593.942 10 0 59552 65700.00000 0 2718021.427 25183928.517 -3049915.324 10 0 59552 66600.00000 0 2738723.486 24600388.677 -6191206.985 10 0 59552 67500.00000 0 2617236.666 23651164.289 -9212317.809 10 0 59552 68400.00000 0 2309712.223 22372297.306 -12054644.402 10 0 59552 69300.00000 0 1780521.543 20810026.529 -14663076.578 10 0 59552 70200.00000 0 1004007.901 19018886.679 -16987060.666 10 0 59552 71100.00000 0 -34183.775 17059481.503 -18981572.648 10 0 59552 72000.00000 0 -1336255.341 14996024.167 -20607982.922 10 0 59552 72900.00000 0 -2891918.271 12893747.424 -21834796.873 10 0 59552 73800.00000 0 -4678585.696 10816290.964 -22638257.860 10 0 59552 74700.00000 0 -6662086.421 8823174.092 -23002801.790 10 0 59552 75600.00000 0 -8797872.291 6967457.857 -22921355.284 10 0 59552 76500.00000 0 -11032669.871 5293692.772 -22395472.087 10 0 59552 77400.00000 0 -13306509.070 3836236.436 -21435305.248 10 0 59552 78300.00000 0 -15555045.781 2618009.945 -20059415.402 10 0 59552 79200.00000 0 -17712083.315 1649743.938 -18294418.313 10 0 59552 80100.00000 0 -19712188.832 929745.017 -16174477.689 10 0 59552 81000.00000 0 -21493296.793 444191.683 -13740652.117 10 0 59552 81900.00000 0 -22999191.490 167946.964 -11040107.705 10 0 59552 82800.00000 0 -24181765.240 65853.418 -8125210.750 10 0 59552 83700.00000 0 -25002957.766 94455.796 -5052517.264 10 0 59552 84600.00000 0 -25436295.194 204078.573 -1881678.370 10 0 59552 85500.00000 0 -25467963.518 341170.359 1325717.264 10 0 59553 0.00000 0 -25097370.848 450815.647 4507341.172 10 0 59553 900.00000 0 -24337173.797 479307.009 7601341.046 10 0 59553 1800.00000 0 -23212766.817 376667.921 10547546.367 10 0 59553 2700.00000 0 -21761254.740 99018.558 13288645.339 10 0 59553 3600.00000 0 -20029951.735 -389316.927 15771305.243 10 0 59553 4500.00000 0 -18074469.410 -1114051.982 17947215.469 10 0 59553 5400.00000 0 -15956474.263 -2089603.791 19774032.184 10 0 59553 6300.00000 0 -13741208.531 -3318241.649 21216205.968 10 0 59553 7200.00000 0 -11494878.422 -4789754.808 22245676.092 10 0 59553 8100.00000 0 -9282019.066 -6481655.050 22842417.966 10 0 59553 9000.00000 0 -7162946.287 -8359906.713 22994833.199 10 0 59553 9900.00000 0 -5191401.549 -10380154.506 22699974.790 10 0 59553 10800.00000 0 -3412488.029 -12489398.571 21963603.231 10 0 59553 11700.00000 0 -1860983.377 -14628047.370 20800072.526 10 0 59553 12600.00000 0 -560098.896 -16732262.936 19232048.426 10 0 59553 13500.00000 0 479264.119 -18736500.732 17290064.397 10 0 59553 14400.00000 0 1258731.046 -20576138.054 15011923.965 10 0 59553 15300.00000 0 1792135.947 -22190081.003 12441961.192 10 0 59553 16200.00000 0 2104683.900 -23523240.881 9630173.787 10 0 59553 17100.00000 0 2231630.514 -24528776.365 6631245.952 10 0 59553 18000.00000 0 2216535.840 -25170007.428 3503480.385 10 0 59553 18900.00000 0 2109167.833 -25421921.043 307660.669 10 0 59553 19800.00000 0 1963145.248 -25272205.604 -2894133.415 10 0 59553 20700.00000 0 1833420.738 -24721771.203 -6039734.004 10 0 59553 21600.00000 0 1773711.474 -23784734.604 -9068092.774 10 0 59553 22500.00000 0 1833986.549 -22487870.011 -11920464.435 10 0 59553 23400.00000 0 2058117.750 -20869549.321 -14541542.970 10 0 59553 24300.00000 0 2481793.142 -18978216.746 -16880528.834 10 0 59553 25200.00000 0 3130781.615 -16870461.916 -18892106.912 10 0 59553 26100.00000 0 4019621.566 -14608772.066 -20537316.939 10 0 59553 27000.00000 0 5150789.074 -12259056.860 -21784300.435 10 0 59553 27900.00000 0 6514380.872 -9888048.401 -22608910.658 10 0 59553 28800.00000 0 8088325.962 -7560683.869 -22995174.630 10 0 59553 29700.00000 0 9839117.913 -5337578.566 -22935599.067 10 0 59553 30600.00000 0 11723038.356 -3272693.104 -22431314.782 10 0 59553 31500.00000 0 13687821.870 -1411290.544 -21492056.902 10 0 59553 32400.00000 0 15674694.261 211732.944 -20135981.128 10 0 59553 33300.00000 0 17620700.635 1573075.527 -18389319.017 10 0 59553 34200.00000 0 19461227.399 2661765.092 -16285878.204 10 0 59553 35100.00000 0 21132614.026 3479372.674 -13866396.234 10 0 59553 36000.00000 0 22574746.248 4039695.613 -11177759.500 10 0 59553 36900.00000 0 23733522.552 4367924.139 -8272101.453 10 0 59553 37800.00000 0 24563090.756 4499326.736 -5205796.818 10 0 59553 38700.00000 0 25027760.556 4477509.932 -2038370.707 10 0 59553 39600.00000 0 25103511.100 4352326.193 1168656.296 10 0 59553 40500.00000 0 24779029.451 4177518.728 4352964.653 10 0 59553 41400.00000 0 24056235.311 4008203.347 7452650.377 10 0 59553 42300.00000 0 22950269.000 3898294.637 10407433.290 10 0 59553 43200.00000 0 21488942.313 3897986.323 13159834.918 10 0 59553 44100.00000 0 19711674.579 4051393.478 15656302.419 10 0 59553 45000.00000 0 17667958.058 4394457.473 17848255.986 10 0 59553 45900.00000 0 15415416.692 4953203.438 19693038.881 10 0 59553 46800.00000 0 13017539.278 5742425.065 21154751.277 10 0 59553 47700.00000 0 10541181.890 6764853.388 22204951.488 10 0 59553 48600.00000 0 8053943.858 8010845.718 22823210.926 10 0 59553 49500.00000 0 5621526.760 9458608.885 22997512.080 10 0 59553 50400.00000 0 3305186.517 11074948.291 22724481.906 10 0 59553 51300.00000 0 1159384.483 12816512.124 22009456.226 10 0 59553 52200.00000 0 -770265.076 14631479.221 20866374.002 10 0 59553 53100.00000 0 -2448666.152 16461620.179 19317503.633 10 0 59553 54000.00000 0 -3852462.135 18244645.691 17393006.646 10 0 59553 54900.00000 0 -4970757.100 19916743.792 15130347.269 10 0 59553 55800.00000 0 -5805308.431 21415199.561 12573559.496 10 0 59553 56700.00000 0 -6370184.399 22680987.415 9772386.013 10 0 59553 57600.00000 0 -6690902.751 23661227.056 6781305.999 10 0 59553 58500.00000 0 -6803088.232 24311399.830 3658471.066 10 0 59553 59400.00000 0 -6750707.293 24597232.339 464570.511 10 0 59553 60300.00000 0 -6583955.984 24496168.191 -2738351.630 10 0 59553 61200.00000 0 -6356891.587 23998366.291 -5888104.066 10 0 59553 62100.00000 0 -6124909.141 23107183.989 -8923556.469 10 0 59553 63000.00000 0 -5942170.325 21839125.156 -11785824.668 10 0 59553 63900.00000 0 -5859093.811 20223255.760 -14419409.681 10 0 59553 64800.00000 0 -5920013.366 18300111.676 -16773268.752 10 0 59553 65700.00000 0 -6161102.567 16120144.606 -18801798.102 10 0 59553 66600.00000 0 -6608653.557 13741771.012 -20465708.973 10 0 59553 67500.00000 0 -7277782.214 11229105.130 -21732780.919 10 0 59553 68400.00000 0 -8171614.257 8649469.870 -22578478.711 10 0 59553 69300.00000 0 -9280986.627 6070788.325 -22986421.769 10 0 59553 70200.00000 0 -10584677.195 3558963.194 -22948697.831 10 0 59553 71100.00000 0 -12050153.953 1175351.613 -22466015.287 10 0 59553 72000.00000 0 -13634813.331 -1025561.014 -21547691.406 10 0 59553 72900.00000 0 -15287657.101 -2998192.967 -20211476.521 10 0 59553 73800.00000 0 -16951339.113 -4707520.800 -18483217.066 10 0 59553 74700.00000 0 -18564497.503 -6130288.733 -16396363.210 10 0 59553 75600.00000 0 -20064276.007 -7255723.426 -13991329.664 10 0 59553 76500.00000 0 -21388929.705 -8085725.033 -11314720.960 10 0 59553 77400.00000 0 -22480406.527 -8634527.011 -8418435.299 10 0 59553 78300.00000 0 -23286796.385 -8927839.430 -5358663.508 10 0 59553 79200.00000 0 -23764544.877 -9001512.114 -2194801.944 10 0 59553 80100.00000 0 -23880337.874 -8899774.245 1011699.748 10 0 59553 81000.00000 0 -23612576.869 -8673125.081 4198533.596 10 0 59553 81900.00000 0 -22952381.930 -8375965.407 7303747.464 10 0 59553 82800.00000 0 -21904078.844 -8064070.464 10266954.182 10 0 59553 83700.00000 0 -20485148.862 -7792012.056 13030511.497 10 0 59553 84600.00000 0 -18725642.001 -7610639.785 15540649.224 10 0 59553 85500.00000 0 -16667077.736 -7564728.927 17748520.936 10 0 59554 0.00000 0 -14360878.615 -7690895.401 19611159.138 10 0 59554 900.00000 0 -11866400.619 -8015867.034 21092315.912 10 0 59554 1800.00000 0 -9248645.460 -8555184.868 22163170.030 10 0 59554 2700.00000 0 -6575745.979 -9312390.399 22802890.111 10 0 59554 3600.00000 0 -3916332.395 -10278733.720 22999040.357 10 0 59554 4500.00000 0 -1336887.818 -11433415.565 22747822.146 10 0 59554 5400.00000 0 1100796.913 -12744353.720 22054146.761 10 0 59554 6300.00000 0 3341963.542 -14169442.073 20931537.959 10 0 59554 7200.00000 0 5340924.906 -15658249.719 19401866.333 10 0 59554 8100.00000 0 7062717.525 -17154088.980 17494920.724 10 0 59554 9000.00000 0 8484300.422 -18596365.537 15247825.009 10 0 59554 9900.00000 0 9595251.309 -19923111.842 12704311.741 10 0 59554 10800.00000 0 10397932.537 -21073597.192 9913866.907 10 0 59554 11700.00000 0 10907121.492 -21990904.471 6930762.620 10 0 59554 12600.00000 0 11149122.764 -22624365.007 3812997.063 10 0 59554 13500.00000 0 11160401.102 -22931748.846 621162.659 10 0 59554 14400.00000 0 10985794.409 -22881118.051 -2582735.069 10 0 59554 15300.00000 0 10676383.713 -22452265.080 -5736484.339 10 0 59554 16200.00000 0 10287111.280 -21637675.805 -8778875.814 10 0 59554 17100.00000 0 9874248.430 -20442976.764 -11650889.450 10 0 59554 18000.00000 0 9492820.594 -18886847.998 -14296836.277 10 0 59554 18900.00000 0 9194098.684 -17000405.248 -16665433.219 10 0 59554 19800.00000 0 9023262.649 -14826077.305 -18710790.558 10 0 59554 20700.00000 0 9017335.544 -12416025.342 -20393293.531 10 0 59554 21600.00000 0 9203474.834 -9830169.720 -21680361.905 10 0 59554 22500.00000 0 9597692.536 -7133905.774 -22547073.772 10 0 59554 23400.00000 0 10204057.814 -4395602.742 -22976642.344 10 0 59554 24300.00000 0 11014415.547 -1683988.540 -22960737.347 10 0 59554 25200.00000 0 12008633.011 934472.377 -22499645.293 10 0 59554 26100.00000 0 13155364.941 3398100.613 -21602265.721 10 0 59554 27000.00000 0 14413305.796 5652319.695 -20285943.341 10 0 59554 27900.00000 0 15732877.874 7651675.301 -18576138.830 10 0 59554 28800.00000 0 17058285.644 9361473.046 -16505943.893 10 0 59554 29700.00000 0 18329851.329 10758967.654 -14115449.021 10 0 59554 30600.00000 0 19486534.683 11834054.742 -11450975.128 10 0 59554 31500.00000 0 20468531.831 12589436.816 -8564183.028 10 0 59554 32400.00000 0 21219844.250 13040257.027 -5511077.176 10 0 59554 33300.00000 0 21690709.766 13213216.374 -2350922.392 10 0 59554 34200.00000 0 21839792.721 13145211.759 854905.595 10 0 59554 35100.00000 0 21636040.253 12881552.638 4044113.480 10 0 59554 36000.00000 0 21060125.355 12473831.911 7154704.094 10 0 59554 36900.00000 0 20105414.654 11977541.467 10126186.316 10 0 59554 37800.00000 0 18778418.783 11449533.851 12900757.003 10 0 59554 38700.00000 0 17098705.026 10945438.077 15424431.322 10 0 59554 39600.00000 0 15098274.735 10517139.665 17648098.709 10 0 59554 40500.00000 0 12820430.520 10210432.266 19528483.466 10 0 59554 41400.00000 0 10318179.804 10062940.886 21028990.926 10 0 59554 42300.00000 0 7652240.913 10102405.144 22120422.454 10 0 59554 43200.00000 0 4888734.443 10345395.677 22781545.370 10 0 59554 44100.00000 0 2096655.804 10796518.361 22999506.775 10 0 59554 45000.00000 0 -654765.969 11448140.323 22770083.303 10 0 59554 45900.00000 0 -3298713.544 12280649.640 22097762.145 10 0 59554 46800.00000 0 -5773321.017 13263238.034 20995651.847 10 0 59554 47700.00000 0 -8024002.779 14355173.726 19485224.749 10 0 59554 48600.00000 0 -10005475.194 15507510.959 17595896.105 10 0 59554 49500.00000 0 -11683387.762 16665164.122 15364448.125 10 0 59554 50400.00000 0 -13035496.646 17769259.007 12834310.237 10 0 59554 51300.00000 0 -14052332.888 18759661.912 10054709.709 10 0 59554 52200.00000 0 -14737338.849 19577579.738 7079709.364 10 0 59554 53100.00000 0 -15106468.697 20168121.175 3967151.524 10 0 59554 54000.00000 0 -15187271.475 20482710.626 777529.113 10 0 59554 54900.00000 0 -15017497.014 20481252.898 -2427193.607 10 0 59554 55800.00000 0 -14643284.981 20133957.153 -5584787.191 10 0 59554 56700.00000 0 -14117014.830 19422743.159 -8633966.194 10 0 59554 57600.00000 0 -13494908.482 18342170.603 -11515577.592 10 0 59554 58500.00000 0 -12834487.657 16899852.315 -14173745.271 10 0 59554 59400.00000 0 -12191993.565 15116334.003 -16556948.541 10 0 59554 60300.00000 0 -11619877.837 13024445.338 -18619014.268 10 0 59554 61200.00000 0 -11164470.221 10668149.260 -20320003.983 10 0 59554 62100.00000 0 -10863920.793 8100937.030 -21626979.706 10 0 59554 63000.00000 0 -10746502.717 5383835.108 -22514634.593 10 0 59554 63900.00000 0 -10829346.340 2583105.893 -22965777.082 10 0 59554 64800.00000 0 -11117657.435 -232263.388 -22971659.969 10 0 59554 65700.00000 0 -11604452.181 -2993180.785 -22532148.584 10 0 59554 66600.00000 0 -12270820.167 -5633071.414 -21655725.005 10 0 59554 67500.00000 0 -13086704.781 -8090393.656 -20359328.150 10 0 59554 68400.00000 0 -14012168.937 -10310946.738 -18668032.316 10 0 59554 69300.00000 0 -14999093.916 -12249875.017 -16614569.683 10 0 59554 70200.00000 0 -15993240.890 -13873286.628 -14238705.069 10 0 59554 71100.00000 0 -16936589.446 -15159419.918 -11586473.979 10 0 59554 72000.00000 0 -17769855.419 -16099309.444 -8709297.758 10 0 59554 72900.00000 0 -18435082.486 -16696924.131 -5662992.183 10 0 59554 73800.00000 0 -18878198.400 -16968772.083 -2506688.056 10 0 59554 74700.00000 0 -19051427.748 -16942988.776 698315.459 10 0 59554 75600.00000 0 -18915458.748 -16657947.288 3889742.498 10 0 59554 76500.00000 0 -18441271.622 -16160449.370 7005553.747 10 0 59554 77400.00000 0 -17611550.132 -15503574.044 9985157.085 10 0 59554 78300.00000 0 -16421615.297 -14744275.079 12770591.468 10 0 59554 79200.00000 0 -14879840.448 -13940829.395 15307660.340 10 0 59554 80100.00000 0 -13007528.669 -13150244.833 17546991.794 10 0 59554 81000.00000 0 -10838256.470 -12425737.493 19445004.349 10 0 59554 81900.00000 0 -8416709.898 -11814385.738 20964759.195 10 0 59554 82800.00000 0 -5797060.965 -11355060.476 22076682.026 10 0 59554 83700.00000 0 -3040951.362 -11076719.441 22759140.401 10 0 59554 84600.00000 0 -215166.991 -10997137.703 22998865.453 10 0 59554 85500.00000 0 2610900.178 -11122128.089 22791209.830 10 0 59555 0.00000 0 5367897.430 -11445284.353 22140237.098 10 0 59555 900.00000 0 7989155.565 -11948258.076 21058640.537 10 0 59555 1800.00000 0 10413218.700 -12601556.985 19567494.002 10 0 59555 2700.00000 0 12586159.808 -13365831.400 17695838.578 10 0 59555 3600.00000 0 14463582.423 -14193593.878 15480113.885 10 0 59555 4500.00000 0 16012227.326 -15031299.339 12963444.946 10 0 59555 5400.00000 0 17211117.920 -15821697.463 10194798.659 10 0 59555 6300.00000 0 18052197.640 -16506357.671 7228026.500 10 0 59555 7200.00000 0 18540434.065 -17028259.606 4120812.500 10 0 59555 8100.00000 0 18693386.925 -17334339.307 933547.356 10 0 59555 9000.00000 0 18540259.794 -17377883.163 -2271848.919 10 0 59555 9900.00000 0 18120476.870 -17120668.257 -5433132.365 10 0 59555 10800.00000 0 17481846.270 -16534758.523 -8488944.609 10 0 59555 11700.00000 0 16678388.424 -15603880.787 -11380002.820 10 0 59555 12600.00000 0 15767921.987 -14324322.590 -14050246.790 10 0 59555 13500.00000 0 14809509.570 -12705313.842 -16447921.117 10 0 59555 14400.00000 0 13860871.058 -10768875.986 -18526571.942 10 0 59555 15300.00000 0 12975873.216 -8549144.630 -20245939.515 10 0 59555 16200.00000 0 12202200.709 -6091193.333 -21572730.220 10 0 59555 17100.00000 0 11579305.728 -3449406.770 -22481254.040 10 0 59555 18000.00000 0 11136721.556 -685470.045 -22953916.001 10 0 59555 18900.00000 0 10892810.095 2133943.517 -22981552.923 10 0 59555 19800.00000 0 10853995.274 4939691.552 -22563609.485 10 0 59555 20700.00000 0 11014514.130 7662785.641 -21708150.441 10 0 59555 21600.00000 0 11356695.893 10237010.862 -20431708.651 10 0 59555 22500.00000 0 11851757.577 12601434.623 -18758971.398 10 0 59555 23400.00000 0 12461083.134 14702701.777 -16722310.340 10 0 59555 24300.00000 0 13137933.043 16497021.671 -14361163.256 10 0 59555 25200.00000 0 13829513.134 17951765.197 -11721278.503 10 0 59555 26100.00000 0 14479316.167 19046605.680 -8853835.877 10 0 59555 27000.00000 0 15029637.938 19774156.306 -5814460.051 10 0 59555 27900.00000 0 15424161.921 20140077.546 -2662145.085 10 0 59555 28800.00000 0 15610503.175 20162650.092 541889.360 10 0 59555 29700.00000 0 15542603.487 19871831.352 3735387.943 10 0 59555 30600.00000 0 15182875.681 19307835.298 6856272.326 10 0 59555 31500.00000 0 14504005.283 18519295.681 9843852.460 10 0 59555 32400.00000 0 13490332.057 17561090.398 12640012.341 10 0 59555 33300.00000 0 12138751.525 16491919.202 15190346.450 10 0 59555 34200.00000 0 10459096.907 15371737.455 17445224.075 10 0 59555 35100.00000 0 8473983.826 14259154.742 19360760.255 10 0 59555 36000.00000 0 6218122.829 13208908.546 20899674.070 10 0 59555 36900.00000 0 3737127.318 12269519.917 22032017.290 10 0 59555 37800.00000 0 1085865.673 11481230.241 22735759.146 10 0 59555 38700.00000 0 -1673574.504 10874306.100 22997215.891 10 0 59555 39600.00000 0 -4474225.681 10467783.614 22811316.884 10 0 59555 40500.00000 0 -7246786.344 10268704.892 22181702.174 10 0 59555 41400.00000 0 -9922268.010 10271878.396 21120649.817 10 0 59555 42300.00000 0 -12434633.409 10460172.844 19648834.442 10 0 59555 43200.00000 0 -14723316.455 10805331.690 17794921.834 10 0 59555 44100.00000 0 -16735519.460 11269273.245 15595007.479 10 0 59555 45000.00000 0 -18428192.358 11805820.914 13091910.080 10 0 59555 45900.00000 0 -19769612.085 12362789.858 10334333.974 10 0 59555 46800.00000 0 -20740497.040 12884341.257 7375916.897 10 0 59555 47700.00000 0 -21334611.048 13313504.058 4274182.069 10 0 59555 48600.00000 0 -21558832.824 13594756.986 1089415.375 10 0 59555 49500.00000 0 -21432689.437 13676561.129 -2116510.046 10 0 59555 50400.00000 0 -20987374.767 13513735.568 -5281338.368 10 0 59555 51300.00000 0 -20264295.683 13069575.332 -8343640.960 10 0 59555 52200.00000 0 -19313208.331 12317621.923 -11244007.824 10 0 59555 53100.00000 0 -18190023.978 11243011.564 -13926197.252 10 0 59555 54000.00000 0 -16954377.435 9843344.091 -16338221.602 10 0 59555 54900.00000 0 -15667060.602 8129035.665 -18433348.582 10 0 59555 55800.00000 0 -14387428.999 6123140.093 -20170999.225 10 0 59555 56700.00000 0 -13170889.722 3860645.602 -21517526.059 10 0 59555 57600.00000 0 -12066575.537 1387275.579 -22446857.354 10 0 59555 58500.00000 0 -11115301.751 -1242157.732 -22940995.847 10 0 59555 59400.00000 0 -10347890.468 -3965779.334 -22990363.154 10 0 59555 60300.00000 0 -9783931.472 -6716974.659 -22593983.713 10 0 59555 61200.00000 0 -9431030.885 -9426914.767 -21759504.992 10 0 59555 62100.00000 0 -9284578.464 -12027180.359 -20503053.464 10 0 59555 63000.00000 0 -9328043.027 -14452377.124 -18848928.704 10 0 59555 63900.00000 0 -9533783.608 -16642635.019 -16829140.816 10 0 59555 64800.00000 0 -9864342.472 -18545888.675 -14482799.210 10 0 59555 65700.00000 0 -10274166.010 -20119844.762 -11855363.511 10 0 59555 66600.00000 0 -10711681.478 -21333554.731 -8997770.163 10 0 59555 67500.00000 0 -11121642.368 -22168527.492 -5965450.761 10 0 59555 68400.00000 0 -11447643.612 -22619335.490 -2817260.508 10 0 59555 69300.00000 0 -11634700.254 -22693688.628 385662.697 10 0 59555 70200.00000 0 -11631780.155 -22411972.821 3581086.420 10 0 59555 71100.00000 0 -11394182.862 -21806272.406 6706895.815 10 0 59555 72000.00000 0 -10885662.988 -20918917.546 9702305.553 10 0 59555 72900.00000 0 -10080206.977 -19800617.875 12509047.386 10 0 59555 73800.00000 0 -8963386.675 -18508261.229 15072509.589 10 0 59555 74700.00000 0 -7533230.993 -17102470.568 17342805.340 10 0 59555 75600.00000 0 -5800577.252 -15645022.388 19275748.748 10 0 59555 76500.00000 0 -3788885.841 -14196235.726 20833719.116 10 0 59555 77400.00000 0 -1533524.530 -12812442.016 21986396.321 10 0 59555 78300.00000 0 919448.886 -11543642.441 22711352.949 10 0 59555 79200.00000 0 3514955.788 -10431451.340 22994491.682 10 0 59555 80100.00000 0 6190948.893 -9507411.972 22830319.511 10 0 59555 81000.00000 0 8880762.446 -8791755.100 22222053.597 10 0 59555 81900.00000 0 11515663.053 -8292651.985 21181556.849 10 0 59555 82800.00000 0 14027495.156 -8005992.546 19729104.552 10 0 59555 83700.00000 0 16351311.316 -7915697.128 17892986.712 10 0 59555 84600.00000 0 18427877.996 -7994547.823 15708953.843 10 0 59555 85500.00000 0 20205952.612 -8205503.314 13219517.151 99